[[{"header":{"parameterUnit":"m.s-1","parameterCategory":2,"la1":30.2992,"la2":30.254,"lo1":-89.0895,"lo2":-89.0443,"dy":0.0025,"dx":0.0025,"nx":19,"ny":19,"refTime":"2026-04-02T03:00:00:Z","depth":"0","parameterNumber":2,"parameterNumberName":"U-component_of_CURRENTS"},"data":[0,0,0,-0.1667,-0.1671,-0.1807,-0.1807,-0.1819,-0.1818,0,0,0,0,0,0,0,0,0,0,0,-0.1613,-0.1614,-0.1667,-0.1671,-0.1807,-0.1807,-0.1819,-0.1818,0,0,0,0,0,0,0,0,0,0,0,-0.1613,-0.1614,-0.1615,-0.1671,-0.1807,-0.1807,-0.1819,-0.1755,0,0,0,0,0,0,0,0,0,0,-0.1642,-0.1605,-0.1614,-0.1615,-0.1672,-0.1806,-0.1807,-0.1753,-0.1759,-0.1713,0,-0.1742,0,-0.1783,-0.1816,-0.1816,0,0,0,-0.1664,-0.16,-0.1653,-0.1615,-0.1674,-0.1806,-0.1743,-0.1758,-0.1763,-0.1719,-0.1742,-0.1744,-0.1783,-0.1816,-0.1816,-0.1806,-0.1806,0,0,-0.1656,-0.1618,-0.165,-0.1657,-0.1715,-0.1739,-0.1748,-0.1763,-0.1757,-0.1743,-0.1746,-0.1783,-0.1816,-0.1815,-0.1806,-0.1806,0,0,0,-0.164,-0.1612,-0.1667,-0.1655,-0.1695,-0.1743,-0.1753,-0.1757,-0.1781,-0.1746,-0.1783,-0.1815,-0.1815,-0.1805,-0.1806,-0.1845,0,0,0,-0.1635,-0.1604,-0.1664,-0.1639,-0.1696,-0.1747,-0.1746,-0.1779,-0.1783,-0.1783,-0.1815,-0.1815,-0.1805,-0.1806,-0.1843,-0.1811,0,0,0,-0.1606,-0.16,-0.1622,-0.1637,-0.1703,-0.1749,-0.1773,-0.1782,-0.1805,-0.1816,-0.1814,-0.1805,-0.1805,-0.1842,-0.1811,-0.1789,0,0,0,-0.1552,-0.1606,-0.1621,-0.169,-0.1702,-0.1795,-0.1774,-0.1829,-0.1845,-0.1815,-0.1805,-0.1806,-0.1842,-0.181,-0.1789,-0.1742,-0.1738,0,0,-0.1597,-0.1609,-0.1656,-0.1675,-0.1757,-0.1775,-0.1837,-0.1846,-0.1827,-0.1787,-0.1788,-0.1844,-0.1811,-0.1789,-0.1763,-0.1758,0,0,0,-0.1656,-0.1674,-0.1709,-0.1756,-0.1821,-0.1837,-0.1869,-0.1876,-0.187,-0.184,-0.184,-0.1816,-0.1802,-0.1774,-0.1771,-0.1739,-0.1807,-0.1807,-0.1807,-0.1607,-0.1671,-0.1717,-0.1782,-0.1828,-0.1879,-0.1894,-0.1891,-0.1894,-0.1899,-0.1848,-0.185,-0.1824,-0.182,-0.1789,-0.1873,-0.1873,-0.1873,-0.1873,-0.1611,-0.1622,-0.1682,-0.1745,-0.1778,-0.1812,-0.1871,-0.1889,-0.1881,-0.1887,-0.1873,-0.1816,-0.1818,-0.1787,-0.1876,-0.1875,-0.1875,-0.1875,-0.1875,-0.1523,-0.1538,-0.1583,-0.1639,-0.1672,-0.1744,-0.1775,-0.1819,-0.1859,-0.1861,-0.1803,-0.1802,-0.1769,-0.1857,-0.1856,-0.1856,-0.1856,-0.1856,-0.1856,-0.1397,-0.1453,-0.1459,-0.1527,-0.1553,-0.1602,-0.1702,-0.1741,-0.1774,-0.1796,-0.1796,-0.1759,-0.1843,-0.1839,-0.1852,-0.1853,-0.1853,-0.1854,-0.1854,-0.1296,-0.1315,-0.1327,-0.1351,-0.1426,-0.1448,-0.158,-0.166,-0.17,-0.1703,-0.1687,-0.1764,-0.1729,-0.1732,-0.1723,-0.1705,-0.1705,-0.1705,-0.1705,-0.1195,-0.1217,-0.1214,-0.1238,-0.1289,-0.1376,-0.1424,-0.1512,-0.1577,-0.1565,-0.161,-0.1625,-0.1632,-0.1593,-0.1598,-0.1587,-0.1536,-0.1536,-0.1535,-0.1114,-0.1137,-0.1099,-0.1152,-0.1223,-0.1292,-0.129,-0.1329,-0.1435,-0.1528,-0.1575,-0.1582,-0.1607,-0.1621,-0.1562,-0.1573,-0.1556,0,0]},{"header":{"parameterUnit":"m.s-1","parameterCategory":2,"la1":30.2992,"la2":30.254,"lo1":-89.0895,"lo2":-89.0443,"dy":0.0025,"dx":0.0025,"nx":19,"ny":19,"refTime":"2026-04-02T03:00:00:Z","depth":"0","parameterNumber":3,"parameterNumberName":"V-component_of_CURRENTS"},"data":[0,0,0,-0.0003,-0.0002,0.0112,0.0113,0.0257,0.0258,0,0,0,0,0,0,0,0,0,0,0,-0.0047,-0.0047,-0.0004,-0.0001,0.0112,0.0113,0.0256,0.0258,0,0,0,0,0,0,0,0,0,0,0,-0.0047,-0.0047,-0.0047,-0.0001,0.0112,0.0113,0.0256,0.0175,0,0,0,0,0,0,0,0,0,0,0.0067,0.0022,-0.0047,-0.0047,-0.0001,0.0112,0.0113,0.0172,0.018,0.0199,0,0.0202,0,0.0227,0.0266,0.0266,0,0,0,0.0017,0.0014,0.004,-0.0047,0.0,0.0112,0.0066,0.0177,0.0186,0.021,0.0204,0.021,0.023,0.0266,0.0267,0.0338,0.0338,0,0,0.0011,-0.0016,0.0033,0.0046,0.0012,0.0062,0.0069,0.0183,0.0187,0.0205,0.0214,0.0232,0.0267,0.0268,0.0338,0.0338,0,0,0,-0.002,-0.0021,0.0003,0.004,0.0057,0.0065,0.0073,0.0183,0.0189,0.0215,0.0234,0.0268,0.0269,0.0338,0.0338,0.0268,0,0,0,-0.0023,-0.004,-0.0,-0.0013,0.0055,0.0122,0.0071,0.0181,0.0195,0.0233,0.0268,0.027,0.0338,0.0338,0.027,0.022,0,0,0,-0.0049,-0.0042,-0.0036,-0.0015,0.0026,0.0121,0.0135,0.0185,0.0205,0.0266,0.0271,0.0338,0.0338,0.0272,0.0225,0.0243,0,0,0,-0.007,-0.0083,-0.0037,-0.0038,0.0025,0.0074,0.0135,0.0188,0.0234,0.0268,0.0338,0.0338,0.0273,0.0227,0.0245,0.031,0.0307,0,0,-0.0102,-0.0087,-0.0087,-0.0043,-0.0032,0.006,0.0093,0.018,0.0237,0.0304,0.0307,0.027,0.0225,0.0244,0.0296,0.0293,0,0,0,-0.0107,-0.0119,-0.0102,-0.0083,-0.0023,0.0028,0.0121,0.0168,0.0237,0.0261,0.0284,0.0258,0.0272,0.0316,0.0314,0.0514,0.0337,0.0337,0.0337,-0.0199,-0.0166,-0.0177,-0.0134,-0.0093,0.001,0.0061,0.0142,0.0204,0.0223,0.0213,0.019,0.0236,0.0235,0.044,0.0237,0.0237,0.0237,0.0237,-0.0279,-0.0289,-0.0246,-0.0247,-0.0175,-0.0134,-0.0004,0.0056,0.0131,0.017,0.0189,0.0253,0.0229,0.0448,0.0232,0.0233,0.0234,0.0234,0.0234,-0.0352,-0.0353,-0.035,-0.0346,-0.0317,-0.0218,-0.0164,-0.0058,0.0051,0.0065,0.0168,0.0171,0.0357,0.0093,0.0093,0.0093,0.0093,0.0093,0.0093,-0.0423,-0.042,-0.0453,-0.044,-0.0437,-0.0389,-0.025,-0.017,-0.0008,0.009,0.0092,0.0382,0.0148,0.0146,0.0091,0.0091,0.0091,0.0091,0.0092,-0.0498,-0.0493,-0.0551,-0.0565,-0.0557,-0.0527,-0.0391,-0.0174,-0.0062,0.0032,0.0401,0.0135,0.0171,0.0175,0.0175,0.0131,0.0131,0.0131,0.0131,-0.0543,-0.0547,-0.0626,-0.0667,-0.0673,-0.0592,-0.0453,-0.0179,0.0243,0.0476,0.053,0.0602,0.0592,0.0657,0.065,0.0662,0.0743,0.0744,0.0745,-0.0583,-0.0607,-0.0673,-0.0716,-0.0727,-0.0652,-0.0496,-0.0104,0.0538,0.0789,0.0795,0.0769,0.0894,0.0861,0.0978,0.0952,0.0976,0,0]}],[{"header":{"parameterUnit":"m.s-1","parameterCategory":2,"la1":30.2992,"la2":30.254,"lo1":-89.0895,"lo2":-89.0443,"dy":0.0025,"dx":0.0025,"nx":19,"ny":19,"refTime":"2026-04-02T03:00:00:Z","depth":"2","parameterNumber":2,"parameterNumberName":"U-component_of_CURRENTS"},"data":[0,0,0,-0.1547,-0.155,-0.1692,-0.1693,-0.173,-0.173,0,0,0,0,0,0,0,0,0,0,0,-0.1495,-0.1496,-0.1547,-0.155,-0.1692,-0.1693,-0.173,-0.173,0,0,0,0,0,0,0,0,0,0,0,-0.1494,-0.1495,-0.1497,-0.1551,-0.1692,-0.1693,-0.173,-0.1659,0,0,0,0,0,0,0,0,0,0,-0.1539,-0.1499,-0.1495,-0.1497,-0.1552,-0.1692,-0.1693,-0.1657,-0.1663,-0.1623,0,-0.165,0,-0.1689,-0.1729,-0.1729,0,0,0,-0.1551,-0.1494,-0.1545,-0.1497,-0.1553,-0.1692,-0.1628,-0.1661,-0.1668,-0.1631,-0.1652,-0.1654,-0.1689,-0.1729,-0.1728,-0.1732,-0.1732,0,0,-0.1543,-0.1506,-0.154,-0.1549,-0.1593,-0.1624,-0.1633,-0.1667,-0.1664,-0.1652,-0.1656,-0.169,-0.1728,-0.1728,-0.1732,-0.1732,0,0,0,-0.152,-0.15,-0.1552,-0.1546,-0.1583,-0.1628,-0.1638,-0.1663,-0.1684,-0.1657,-0.169,-0.1728,-0.1728,-0.1732,-0.1732,-0.1766,0,0,0,-0.1515,-0.1487,-0.1548,-0.1525,-0.1583,-0.1642,-0.1632,-0.1682,-0.1688,-0.169,-0.1728,-0.1728,-0.1732,-0.1732,-0.1765,-0.1727,0,0,0,-0.1488,-0.1483,-0.1505,-0.1523,-0.1587,-0.1643,-0.1667,-0.1685,-0.1707,-0.1729,-0.1728,-0.1732,-0.1732,-0.1764,-0.1727,-0.1706,0,0,0,-0.1438,-0.1487,-0.1503,-0.157,-0.1586,-0.1686,-0.1668,-0.1736,-0.1762,-0.1728,-0.1732,-0.1732,-0.1763,-0.1727,-0.1706,-0.1652,-0.1647,0,0,-0.1478,-0.149,-0.1535,-0.1555,-0.1643,-0.1667,-0.1733,-0.1758,-0.1745,-0.171,-0.1711,-0.1765,-0.1727,-0.1706,-0.1672,-0.1666,0,0,0,-0.1535,-0.1554,-0.1591,-0.1641,-0.1711,-0.1731,-0.1775,-0.1786,-0.1788,-0.1762,-0.1763,-0.1736,-0.1722,-0.1691,-0.1686,-0.1734,-0.1734,-0.1734,-0.1734,-0.1493,-0.1555,-0.1604,-0.167,-0.172,-0.1779,-0.1797,-0.18,-0.1813,-0.1819,-0.1765,-0.1765,-0.1734,-0.1729,-0.1793,-0.1793,-0.1793,-0.1793,-0.1793,-0.1499,-0.1512,-0.1573,-0.1638,-0.1672,-0.1711,-0.1771,-0.1793,-0.1786,-0.1799,-0.1786,-0.1728,-0.1726,-0.1796,-0.1795,-0.1795,-0.1795,-0.1794,-0.1794,-0.1421,-0.1435,-0.148,-0.1537,-0.1573,-0.1645,-0.1675,-0.172,-0.176,-0.176,-0.1705,-0.1704,-0.1752,-0.1762,-0.1761,-0.1761,-0.1761,-0.1761,-0.1761,-0.1303,-0.1357,-0.1366,-0.1434,-0.1462,-0.1511,-0.1606,-0.1642,-0.167,-0.169,-0.169,-0.1752,-0.1753,-0.1748,-0.1757,-0.1758,-0.1758,-0.1759,-0.1759,-0.1209,-0.1229,-0.1243,-0.1268,-0.1344,-0.1356,-0.1488,-0.1556,-0.1593,-0.1591,-0.1652,-0.1656,-0.1622,-0.1625,-0.1616,-0.1589,-0.1589,-0.1589,-0.1589,-0.1115,-0.1137,-0.1137,-0.1163,-0.1212,-0.1284,-0.1298,-0.1335,-0.1421,-0.1411,-0.1418,-0.1431,-0.1442,-0.1398,-0.1407,-0.1393,-0.1308,-0.1308,-0.1307,-0.1038,-0.1062,-0.1026,-0.108,-0.1149,-0.1193,-0.1131,-0.1045,-0.1111,-0.1293,-0.1341,-0.1576,-0.1618,-0.1627,-0.1579,-0.1585,-0.1571,0,0]},{"header":{"parameterUnit":"m.s-1","parameterCategory":2,"la1":30.2992,"la2":30.254,"lo1":-89.0895,"lo2":-89.0443,"dy":0.0025,"dx":0.0025,"nx":19,"ny":19,"refTime":"2026-04-02T03:00:00:Z","depth":"2","parameterNumber":3,"parameterNumberName":"V-component_of_CURRENTS"},"data":[0,0,0,-0.0086,-0.0084,0.003,0.003,0.0189,0.019,0,0,0,0,0,0,0,0,0,0,0,-0.0127,-0.0127,-0.0086,-0.0084,0.003,0.003,0.0189,0.019,0,0,0,0,0,0,0,0,0,0,0,-0.0127,-0.0127,-0.0127,-0.0083,0.0029,0.0031,0.0188,0.0105,0,0,0,0,0,0,0,0,0,0,-0.0005,-0.005,-0.0127,-0.0127,-0.0083,0.0029,0.0031,0.0101,0.011,0.0134,0,0.0135,0,0.0157,0.0199,0.0199,0,0,0,-0.0061,-0.0057,-0.0035,-0.0127,-0.0082,0.0029,-0.0015,0.0106,0.0116,0.0146,0.0137,0.0143,0.016,0.02,0.02,0.0283,0.0283,0,0,-0.0067,-0.0092,-0.0042,-0.0029,-0.0074,-0.0019,-0.0012,0.0112,0.0119,0.0138,0.0147,0.0163,0.02,0.0201,0.0283,0.0283,0,0,0,-0.01,-0.0096,-0.0076,-0.0036,-0.0021,-0.0016,-0.0008,0.0114,0.0118,0.0149,0.0164,0.0201,0.0203,0.0283,0.0283,0.021,0,0,0,-0.0103,-0.0118,-0.008,-0.0091,-0.0024,0.0047,-0.0009,0.0109,0.0124,0.0164,0.0201,0.0204,0.0284,0.0283,0.0212,0.0163,0,0,0,-0.0129,-0.0119,-0.0115,-0.0093,-0.0055,0.0045,0.0058,0.0113,0.0133,0.0199,0.0204,0.0284,0.0283,0.0214,0.0167,0.0184,0,0,0,-0.0144,-0.016,-0.0116,-0.0118,-0.0056,-0.0004,0.0058,0.0118,0.017,0.0202,0.0284,0.0283,0.0215,0.017,0.0186,0.0238,0.0234,0,0,-0.0177,-0.0164,-0.0164,-0.0123,-0.0108,-0.0016,0.0021,0.0116,0.0176,0.0248,0.025,0.0212,0.0167,0.0184,0.0228,0.0224,0,0,0,-0.0182,-0.0194,-0.0176,-0.0156,-0.0095,-0.0042,0.0055,0.0104,0.0178,0.0202,0.0229,0.0203,0.0217,0.0253,0.025,0.0283,0.0283,0.0283,0.0283,-0.0269,-0.0236,-0.0244,-0.0202,-0.0159,-0.0053,-0.0001,0.0081,0.0148,0.0167,0.0157,0.0134,0.0171,0.017,0.0183,0.0183,0.0182,0.0182,0.0182,-0.0345,-0.0353,-0.0309,-0.0309,-0.0236,-0.0191,-0.0063,-0.0003,0.0072,0.0114,0.0132,0.0189,0.0162,0.0177,0.0178,0.0178,0.0179,0.0179,0.018,-0.0411,-0.0413,-0.0409,-0.0403,-0.0371,-0.0273,-0.022,-0.0116,-0.0008,0.0004,0.0101,0.0103,0.0092,0.0033,0.0033,0.0033,0.0033,0.0033,0.0033,-0.0478,-0.0475,-0.0507,-0.0492,-0.0488,-0.044,-0.0304,-0.0228,-0.0074,0.002,0.0022,0.0085,0.0089,0.0086,0.003,0.0031,0.0031,0.0031,0.0031,-0.055,-0.0545,-0.0601,-0.0615,-0.0606,-0.058,-0.0445,-0.0241,-0.0135,-0.0048,0.0058,0.0059,0.0095,0.0099,0.0097,0.0048,0.0048,0.0048,0.0048,-0.0595,-0.0598,-0.0676,-0.0716,-0.0721,-0.0645,-0.0526,-0.0299,-0.0067,0.0043,0.0043,0.0075,0.0075,0.0113,0.0117,0.0116,0.0071,0.0071,0.0071,-0.0635,-0.0658,-0.0723,-0.0764,-0.0775,-0.0708,-0.0584,-0.0311,0.0,0.0068,0.0001,0.0058,0.0108,0.0107,0.017,0.0174,0.0176,0,0]}],[{"header":{"parameterUnit":"m.s-1","parameterCategory":2,"la1":30.2992,"la2":30.254,"lo1":-89.0895,"lo2":-89.0443,"dy":0.0025,"dx":0.0025,"nx":19,"ny":19,"refTime":"2026-04-02T03:00:00:Z","depth":"4","parameterNumber":2,"parameterNumberName":"U-component_of_CURRENTS"},"data":[0,0,0,-0.0826,-0.0825,-0.0749,-0.0748,-0.0578,-0.0576,0,0,0,0,0,0,0,0,0,0,0,-0.0838,-0.0837,-0.0826,-0.0825,-0.0749,-0.0748,-0.0578,-0.0576,0,0,0,0,0,0,0,0,0,0,0,-0.0838,-0.0837,-0.0837,-0.0825,-0.0749,-0.0748,-0.0579,-0.065,0,0,0,0,0,0,0,0,0,0,-0.0731,-0.078,-0.0837,-0.0837,-0.0824,-0.0749,-0.0748,-0.0654,-0.0645,-0.0597,0,-0.0586,0,-0.0589,-0.0565,-0.0564,0,0,0,-0.0807,-0.0787,-0.0751,-0.0837,-0.0824,-0.0749,-0.0778,-0.065,-0.064,-0.0586,-0.0584,-0.0579,-0.0586,-0.0564,-0.0563,-0.0613,-0.0614,0,0,-0.0811,-0.0835,-0.0758,-0.0745,-0.0803,-0.0781,-0.0776,-0.0644,-0.0641,-0.0584,-0.0575,-0.0584,-0.0563,-0.0562,-0.0611,-0.0613,0,0,0,-0.0835,-0.0839,-0.0807,-0.0751,-0.0749,-0.0779,-0.0773,-0.0647,-0.0632,-0.0574,-0.0582,-0.0562,-0.056,-0.0609,-0.0612,-0.0785,0,0,0,-0.0837,-0.0854,-0.0809,-0.0824,-0.0753,-0.0714,-0.0779,-0.0641,-0.0627,-0.0582,-0.0562,-0.0558,-0.0607,-0.061,-0.0776,-0.0777,0,0,0,-0.0841,-0.0855,-0.0842,-0.0825,-0.08,-0.0716,-0.0694,-0.0638,-0.0632,-0.0564,-0.0558,-0.0606,-0.061,-0.0768,-0.0766,-0.0769,0,0,0,-0.0873,-0.0837,-0.0843,-0.0805,-0.0801,-0.0745,-0.0695,-0.0614,-0.0551,-0.0561,-0.0607,-0.0611,-0.0765,-0.0759,-0.0763,-0.0565,0,0,0,-0.0838,-0.0834,-0.0808,-0.0811,-0.0818,-0.0754,-0.0802,-0.0682,-0.0623,-0.0636,-0.0637,-0.0779,-0.0765,-0.0768,-0.0824,0,0,0,0,-0.0803,-0.0808,-0.08,-0.0813,-0.0771,-0.0849,-0.0756,-0.0761,-0.0796,-0.0615,-0.0819,-0.0803,-0.0799,-0.0672,-0.0633,-0.0632,-0.0632,-0.0631,-0.0631,-0.0828,-0.0823,-0.0838,-0.0869,-0.0868,-0.0894,-0.0935,-0.0952,-0.0872,-0.0954,-0.0979,-0.1135,-0.102,-0.1053,-0.1054,-0.1055,-0.1056,-0.1056,-0.1057,-0.0837,-0.084,-0.0915,-0.0934,-0.1029,-0.1075,-0.1156,-0.1158,-0.1231,-0.1183,-0.1171,-0.0908,-0.1075,-0.1071,-0.1069,-0.1067,-0.1065,-0.1064,-0.1063,-0.0861,-0.086,-0.0907,-0.0984,-0.1104,-0.1184,-0.1257,-0.1313,-0.1336,-0.1371,-0.1151,-0.1207,-0.1146,-0.1354,-0.1355,-0.1355,-0.1355,-0.1355,-0.1355,-0.0834,-0.0884,-0.0924,-0.1019,-0.1078,-0.1168,-0.1279,-0.1304,-0.1345,-0.127,-0.1376,-0.1232,-0.1222,-0.1161,-0.1357,-0.1357,-0.1356,-0.1356,-0.1356,-0.0767,-0.0814,-0.0854,-0.091,-0.1025,-0.1076,-0.1204,-0.1214,-0.1217,-0.118,-0.1201,-0.1208,-0.1086,-0.1078,-0.1006,-0.1163,-0.1161,-0.1159,0,-0.0711,-0.0741,-0.0779,-0.0833,-0.0893,-0.1009,-0.1,-0.105,-0.1082,-0.1042,-0.121,-0.1232,-0.1236,-0.1096,-0.1086,-0.1001,0,0,0,-0.0647,-0.0679,-0.0676,-0.0759,-0.0824,-0.0886,-0.0988,-0.0959,-0.1086,-0.1046,-0.1111,-0.1124,-0.1272,-0.1363,-0.1189,-0.1177,-0.1066,0,0]},{"header":{"parameterUnit":"m.s-1","parameterCategory":2,"la1":30.2992,"la2":30.254,"lo1":-89.0895,"lo2":-89.0443,"dy":0.0025,"dx":0.0025,"nx":19,"ny":19,"refTime":"2026-04-02T03:00:00:Z","depth":"4","parameterNumber":3,"parameterNumberName":"V-component_of_CURRENTS"},"data":[0,0,0,-0.0238,-0.0238,-0.0238,-0.0238,-0.013,-0.0129,0,0,0,0,0,0,0,0,0,0,0,-0.0232,-0.0232,-0.0238,-0.0239,-0.0238,-0.0238,-0.013,-0.0129,0,0,0,0,0,0,0,0,0,0,0,-0.0232,-0.0232,-0.0233,-0.0239,-0.0238,-0.0238,-0.013,-0.0152,0,0,0,0,0,0,0,0,0,0,-0.0163,-0.018,-0.0232,-0.0233,-0.0239,-0.0238,-0.0238,-0.0154,-0.015,-0.0107,0,-0.0122,0,-0.0134,-0.0121,-0.0121,0,0,0,-0.0215,-0.0183,-0.019,-0.0233,-0.0239,-0.0239,-0.0232,-0.0152,-0.0149,-0.0102,-0.0121,-0.0118,-0.0132,-0.0121,-0.012,0.0032,0.0033,0,0,-0.0215,-0.0217,-0.0193,-0.0188,-0.0257,-0.0232,-0.0232,-0.0151,-0.0147,-0.0121,-0.0116,-0.013,-0.012,-0.0119,0.0031,0.0032,0,0,0,-0.0231,-0.0217,-0.0228,-0.0192,-0.0207,-0.0233,-0.0233,-0.0151,-0.0158,-0.0115,-0.0129,-0.0119,-0.0118,0.003,0.0032,-0.0034,0,0,0,-0.023,-0.0228,-0.0228,-0.0227,-0.0209,-0.0194,-0.0234,-0.0163,-0.0155,-0.0129,-0.0119,-0.0117,0.0029,0.0031,-0.0034,-0.0069,0,0,0,-0.0229,-0.0228,-0.0236,-0.0227,-0.024,-0.0196,-0.0197,-0.0161,-0.0163,-0.0121,-0.0117,0.0029,0.0031,-0.0034,-0.0068,-0.005,0,0,0,-0.0218,-0.0248,-0.0236,-0.0262,-0.024,-0.0229,-0.0198,-0.0176,-0.0144,-0.0119,0.003,0.0032,-0.0034,-0.0068,-0.005,-0.0103,0,0,0,-0.0252,-0.0252,-0.0266,-0.0256,-0.0258,-0.0226,-0.0196,-0.0146,-0.009,0.0012,0.0015,-0.0034,-0.0068,-0.005,0.0015,0,0,0,0,-0.0274,-0.0285,-0.0282,-0.0281,-0.0261,-0.0221,-0.0174,-0.0137,-0.0053,-0.0067,0.0025,0.0007,0.0019,-0.0007,0.0041,0.0041,0.0041,0.004,0.004,-0.0315,-0.0304,-0.0316,-0.0294,-0.0271,-0.0206,-0.0167,-0.0091,-0.0049,-0.0008,-0.0003,0.0024,-0.0001,0.0052,0.0052,0.0052,0.0051,0.0051,0.0051,-0.0363,-0.0373,-0.0338,-0.0349,-0.0289,-0.0254,-0.0152,-0.0114,-0.0029,0.0001,0.0016,-0.002,0.0046,0.0047,0.0048,0.0048,0.0049,0.0049,0.0049,-0.0391,-0.0396,-0.04,-0.04,-0.0365,-0.0295,-0.0249,-0.0165,-0.0079,-0.0061,-0.0045,0.0003,-0.0041,-0.0041,-0.0041,-0.0041,-0.0041,-0.0041,-0.0041,-0.0425,-0.0425,-0.0458,-0.0452,-0.0454,-0.0418,-0.031,-0.0253,-0.0151,-0.0108,-0.0068,-0.0006,-0.0003,-0.0043,-0.0042,-0.0042,-0.0042,-0.0042,-0.0042,-0.047,-0.0474,-0.0527,-0.0547,-0.0551,-0.0515,-0.0423,-0.0291,-0.0232,-0.0172,-0.0115,-0.0111,-0.0087,-0.0082,-0.0125,-0.0149,-0.015,-0.015,0,-0.05,-0.0506,-0.0583,-0.0626,-0.0631,-0.0567,-0.0486,-0.0393,-0.0264,-0.0267,-0.0235,-0.0176,-0.0171,-0.015,-0.0146,-0.02,0,0,0,-0.053,-0.0552,-0.0613,-0.0658,-0.0664,-0.0547,-0.0459,-0.0415,-0.0289,-0.0231,-0.0168,-0.0163,-0.013,-0.0045,0.0001,0.0005,-0.0057,0,0]}]]